Location: Saint Louis
(38.6272°N, 90.1978°W)
Time: 08:49:27
(UTC-05:00)

ISS - Pass Details

Date: 08 January 2014
Orbit: 402 x 404 km, 51.6° (Epoch: 24 May)

Event Time Altitude Azimuth Distance (km) Brightness Sun altitude
Exits shadow 04:37:52 - 135° (SE) 1,575 0.2 -30.8°
Enters shadow 05:43:15 -57° 230° (SW) 11,224 3.9 -18.2°
Maximum altitude 06:14:47 85° 323° (NW) 430 -3.3 -12.3°
